[[{"header":{"parameterUnit":"m.s-1","parameterCategory":1,"la1":30.2992,"la2":30.254,"lo1":-89.0895,"lo2":-89.0443,"dy":0.0025,"dx":0.0025,"nx":19,"ny":19,"refTime":"2026-05-17T03:00:00:Z","depth":0,"parameterNumber":2,"parameterNumberName":"U-component_of_WINDS"},"data":[0,0,0,-4.1275,-4.1277,-4.1366,-4.1367,-4.1489,-4.149,0,0,0,0,0,0,0,0,0,0,0,-4.1254,-4.1255,-4.1275,-4.1277,-4.1366,-4.1367,-4.1489,-4.149,0,0,0,0,0,0,0,0,0,0,0,-4.1253,-4.1255,-4.1256,-4.1278,-4.1366,-4.1367,-4.1489,-4.1418,0,0,0,0,0,0,0,0,0,0,-4.133,-4.1316,-4.1254,-4.1256,-4.1278,-4.1366,-4.1367,-4.1415,-4.1423,-4.1452,0,-4.148,0,-4.1488,-4.1499,-4.15,0,0,0,-4.1273,-4.1309,-4.1329,-4.1256,-4.1279,-4.1366,-4.1325,-4.1419,-4.1428,-4.1463,-4.1482,-4.1486,-4.149,-4.15,-4.1501,-4.1687,-4.1688,0,0,-4.1268,-4.1272,-4.1322,-4.1335,-4.1322,-4.1322,-4.1328,-4.1424,-4.1445,-4.1483,-4.1489,-4.1492,-4.1501,-4.1502,-4.1686,-4.1687,0,0,0,-4.1257,-4.1269,-4.1286,-4.133,-4.1345,-4.1325,-4.1331,-4.1441,-4.1446,-4.149,-4.1493,-4.1502,-4.1503,-4.1684,-4.1686,-4.1742,0,0,0,-4.1254,-4.1263,-4.1284,-4.1288,-4.1344,-4.1394,-4.1346,-4.144,-4.145,-4.1492,-4.1502,-4.1505,-4.1683,-4.1685,-4.1738,-4.1767,0,0,0,-4.1246,-4.1262,-4.1276,-4.1288,-4.1326,-4.1393,-4.1403,-4.1442,-4.1452,-4.15,-4.1505,-4.1682,-4.1685,-4.1734,-4.1761,-4.1816,0,0,0,-4.1239,-4.1325,-4.1277,-4.1374,-4.1326,-4.1427,-4.1403,-4.1478,-4.1526,-4.1502,-4.1683,-4.1686,-4.1733,-4.1757,-4.1812,-4.1862,-4.1884,0,0,-4.1349,-4.1338,-4.1394,-4.1355,-4.1466,-4.1413,-4.1533,-4.1572,-4.1572,-4.1648,-4.1653,-4.1739,-4.176,-4.1815,-4.2007,-4.2024,0,0,0,-4.1431,-4.1471,-4.15,-4.1545,-4.1578,-4.1608,-4.1629,-4.1644,-4.1709,-4.1613,-4.1775,-4.1787,-4.1819,-4.1843,-4.1858,-4.1884,-4.1697,-4.1697,-4.1697,-4.1591,-4.1588,-4.1681,-4.1689,-4.1734,-4.1756,-4.1791,-4.1815,-4.1798,-4.1837,-4.1859,-4.1975,-4.2003,-4.2014,-4.2042,-4.1886,-4.1887,-4.1887,-4.1887,-4.175,-4.1806,-4.1784,-4.1866,-4.1863,-4.1932,-4.1956,-4.1942,-4.2006,-4.1958,-4.1987,-4.1933,-4.2033,-4.2058,-4.1891,-4.189,-4.189,-4.1889,-4.1889,-4.1853,-4.188,-4.1897,-4.1963,-4.2015,-4.2021,-4.2083,-4.2078,-4.2074,-4.2102,-4.2124,-4.2123,-4.212,-4.2113,-4.2114,-4.2114,-4.2114,-4.2115,-4.2115,-4.1952,-4.197,-4.2023,-4.2067,-4.2096,-4.2133,-4.2157,-4.2186,-4.2216,-4.2207,-4.2207,-4.2186,-4.2044,-4.2008,-4.2121,-4.212,-4.2119,-4.2119,-4.2118,-4.2112,-4.2075,-4.2157,-4.2187,-4.2237,-4.2289,-4.2283,-4.2341,-4.2364,-4.2395,-4.2369,-4.2266,-4.2253,-4.2242,-4.2211,-4.237,-4.237,-4.237,-4.237,-4.2198,-4.2192,-4.2274,-4.2322,-4.2368,-4.2371,-4.2463,-4.2483,-4.2498,-4.2512,-4.2489,-4.2449,-4.2437,-4.2432,-4.2416,-4.2387,-4.2588,-4.2588,-4.2588,-4.2295,-4.2294,-4.2373,-4.2388,-4.2427,-4.2461,-4.2548,-4.2603,-4.2612,-4.2597,-4.2523,-4.2513,-4.2449,-4.2428,-4.2408,-4.2384,-4.2331,0,0]},{"header":{"parameterUnit":"m.s-1","parameterCategory":1,"la1":30.2992,"la2":30.254,"lo1":-89.0895,"lo2":-89.0443,"dy":0.0025,"dx":0.0025,"nx":19,"ny":19,"refTime":"2026-05-17T03:00:00:Z","depth":0,"parameterNumber":3,"parameterNumberName":"V-component_of_WINDS"},"data":[0,0,0,3.2865,3.2866,3.2926,3.2926,3.3006,3.3007,0,0,0,0,0,0,0,0,0,0,0,3.2848,3.2849,3.2865,3.2866,3.2926,3.2926,3.3006,3.3007,0,0,0,0,0,0,0,0,0,0,0,3.2848,3.2849,3.2849,3.2866,3.2926,3.2926,3.3006,3.296,0,0,0,0,0,0,0,0,0,0,3.2901,3.2887,3.2848,3.2849,3.2867,3.2926,3.2926,3.2957,3.2963,3.298,0,3.2996,0,3.3003,3.3012,3.3013,0,0,0,3.2865,3.2882,3.2897,3.2849,3.2867,3.2926,3.2899,3.296,3.2966,3.2987,3.2997,3.3,3.3004,3.3013,3.3013,3.3119,3.3119,0,0,3.2862,3.286,3.2893,3.2901,3.2891,3.2897,3.2901,3.2964,3.2974,3.2997,3.3002,3.3005,3.3014,3.3014,3.3118,3.3119,0,0,0,3.2853,3.2857,3.2871,3.2898,3.2909,3.2899,3.2903,3.2971,3.2976,3.3002,3.3006,3.3014,3.3015,3.3117,3.3118,3.3143,0,0,0,3.2851,3.2852,3.2869,3.2869,3.2907,3.2941,3.2909,3.2972,3.2979,3.3006,3.3014,3.3016,3.3117,3.3118,3.3141,3.3155,0,0,0,3.2844,3.2851,3.286,3.2868,3.2894,3.294,3.2948,3.2973,3.2981,3.3013,3.3016,3.3116,3.3118,3.3139,3.3152,3.3183,0,0,0,3.2836,3.288,3.2861,3.2912,3.2893,3.2954,3.2947,3.2993,3.3022,3.3014,3.3117,3.3118,3.3138,3.315,3.3181,3.3208,3.3219,0,0,3.289,3.2887,3.2917,3.2902,3.2965,3.2945,3.3013,3.3042,3.3047,3.3095,3.3097,3.3141,3.3151,3.3182,3.3282,3.3291,0,0,0,3.2934,3.2956,3.2973,3.3002,3.3026,3.3048,3.3068,3.3079,3.312,3.3071,3.3161,3.3167,3.3185,3.3198,3.3206,3.3222,3.3124,3.3124,3.3124,3.3008,3.3013,3.3065,3.3077,3.3105,3.3126,3.315,3.3169,3.3165,3.3187,3.32,3.326,3.3276,3.3282,3.3299,3.3215,3.3215,3.3215,3.3215,3.3089,3.3122,3.3117,3.3166,3.3172,3.3213,3.3236,3.3232,3.3272,3.3249,3.3266,3.3241,3.3291,3.3306,3.3217,3.3217,3.3217,3.3217,3.3216,3.3138,3.3155,3.3169,3.3212,3.3246,3.3257,3.3297,3.33,3.3304,3.332,3.3336,3.3336,3.3337,3.3327,3.3328,3.3328,3.3328,3.3328,3.3328,3.3184,3.3199,3.3231,3.3262,3.3282,3.3309,3.3333,3.3353,3.3376,3.3376,3.3376,3.3371,3.3295,3.3276,3.3332,3.3331,3.3331,3.333,3.333,3.3266,3.3249,3.3299,3.3319,3.3357,3.3391,3.3396,3.3437,3.3454,3.3474,3.3466,3.3409,3.3405,3.3399,3.3384,3.3464,3.3464,3.3464,3.3464,3.3308,3.3307,3.336,3.3393,3.3425,3.3435,3.3493,3.3513,3.353,3.3542,3.3531,3.351,3.3504,3.3504,3.3496,3.3482,3.3585,3.3585,3.3585,3.336,3.3362,3.341,3.3427,3.3458,3.3484,3.354,3.3579,3.3595,3.359,3.3551,3.3546,3.3513,3.3502,3.3496,3.3484,3.3457,0,0]}]]